Soldotna, AK

4:29 AM AKST on December 15, 2019 (GMT -0900)
Soldotna

Weather History for PASX - October, 2019

Change the Weather History Date:

Tuesday, October 22, 2019

  Actual Average Record
Temperature  
Mean Temperature 37 °F -  
Max Temperature 48 °F 39 °F 59 °F (1957)
Min Temperature 28 °F 24 °F -2 °F (1996)
Degree Days  
Heating Degree Days 28    
Moisture  
Dew Point 32 °F    
Average Humidity 90    
Maximum Humidity 100    
Minimum Humidity 61    
Precipitation  
Precipitation 0.00 in - - ()
Sea Level Pressure  
Sea Level Pressure 29.83 in    
Wind  
Wind Speed 4 mph (ENE)    
Max Wind Speed 17 mph    
Max Gust Speed 26 mph    
Visibility 6 miles    
Events Fog , Rain    
Averages and records for this station are not official NWS values.
T = Trace of Precipitation, MM = Missing Value Source: NWS Daily Summary

Daily Weather History Graph

Daily Weather History Graph

Search for Another Location

Airport or City:

Astronomy

Oct. 22, 2019 Rise Set
Actual Time 9:02 AM AKDT 6:33 PM AKDT
Civil Twilight 8:18 AM AKDT 7:17 PM AKDT
Nautical Twilight 7:29 AM AKDT 8:06 PM AKDT
Astronomical Twilight 6:40 AM AKDT 8:55 PM AKDT
Moon 12:08 AM AKDT (10/22) 5:49 PM AKDT (10/22)
Length of Visible Light 10h 58m
Length of Day
9h 31m
Waning Crescent, 35% of the Moon is Illuminated
Oct 22
Waning Crescent
Oct 27
New
Nov 4
First Quarter
Nov 12
Full
Nov 19
Last Quarter

Hourly Weather History & Observations

Time (AKDT) Temp. Windchill Dew Point Humidity Pressure Visibility Wind Dir Wind Speed Gust Speed Precip Events Conditions
12:00 AM 30.2 °F 26.7 °F 28.4 °F 93% 29.77 in 1.8 mi East 3.5 mph - N/A   Clear
12:05 AM 30.2 °F 26.7 °F 28.4 °F 93% 29.77 in 0.8 mi East 3.5 mph - N/A   Clear
12:14 AM 30.2 °F 26.7 °F 30.2 °F 100% 29.77 in 1.2 mi NE 3.5 mph - N/A   Clear
12:19 AM 30.2 °F - 30.2 °F 100% 29.77 in 3.0 mi Calm Calm - N/A   Clear
12:30 AM 30.2 °F 26.7 °F 30.2 °F 100% 29.77 in 1.8 mi ENE 3.5 mph - N/A   Clear
12:42 AM 30.2 °F 26.7 °F 30.2 °F 100% 29.77 in 0.8 mi East 3.5 mph - N/A   Clear
12:56 AM 30.0 °F - 30.0 °F 100% 29.81 in 0.5 mi Calm Calm - N/A Fog Light Freezing Fog
1:08 AM 30.2 °F - 28.4 °F 93% 29.78 in 1.0 mi Calm Calm - N/A   Clear
1:26 AM 30.2 °F - 28.4 °F 93% 29.79 in 10.0 mi Calm Calm - N/A   Clear
1:42 AM 28.4 °F 24.6 °F 28.4 °F 100% 29.79 in 1.5 mi ENE 3.5 mph - N/A   Clear
1:44 AM 28.4 °F 24.6 °F 28.4 °F 100% 29.79 in 0.8 mi ENE 3.5 mph - N/A   Clear
1:48 AM 28.4 °F 24.6 °F 28.4 °F 100% 29.79 in 0.2 mi ENE 3.5 mph - N/A Fog Light Freezing Fog
1:56 AM 30.0 °F 25.2 °F 30.0 °F 100% 29.82 in 0.2 mi East 4.6 mph - N/A Fog Light Freezing Fog
2:06 AM 30.2 °F - 28.4 °F 93% 29.80 in 0.8 mi Calm Calm - N/A   Clear
2:09 AM 30.2 °F - 28.4 °F 93% 29.80 in 2.0 mi Calm Calm - N/A   Clear
2:21 AM 30.2 °F 26.7 °F 30.2 °F 100% 29.80 in 3.0 mi East 3.5 mph - N/A   Mostly Cloudy
2:24 AM 30.2 °F 26.7 °F 30.2 °F 100% 29.80 in 1.8 mi ENE 3.5 mph - N/A   Mostly Cloudy
2:32 AM 30.2 °F 25.4 °F 30.2 °F 100% 29.80 in 3.0 mi ENE 4.6 mph - N/A   Mostly Cloudy
2:56 AM 30.0 °F - 30.0 °F 100% 29.84 in 10.0 mi Calm Calm - N/A   Scattered Clouds
3:56 AM 30.9 °F 27.5 °F 30.0 °F 96% 29.85 in 10.0 mi ENE 3.5 mph - N/A   Overcast
4:56 AM 30.9 °F - 30.9 °F 100% 29.86 in 10.0 mi Calm Calm - 0.00 in   Mostly Cloudy
5:56 AM 30.9 °F 27.5 °F 30.9 °F 100% 29.87 in 10.0 mi ENE 3.5 mph - N/A   Overcast
6:56 AM 32.0 °F - 32.0 °F 100% 29.89 in 10.0 mi Calm Calm - 0.00 in   Mostly Cloudy
7:56 AM 33.1 °F - 33.1 °F 100% 29.91 in 10.0 mi Calm Calm - 0.00 in   Scattered Clouds
8:56 AM 32.0 °F - 32.0 °F 100% 29.92 in 10.0 mi Calm Calm - 0.00 in   Scattered Clouds
9:56 AM 33.1 °F - 32.0 °F 96% 29.93 in 10.0 mi Calm Calm - 0.00 in   Mostly Cloudy
10:56 AM 34.0 °F 31.0 °F 34.0 °F 100% 29.96 in 10.0 mi East 3.5 mph - 0.00 in Rain Light Rain
11:56 AM 36.0 °F - 36.0 °F 100% 29.97 in 10.0 mi Calm Calm - 0.00 in Rain Light Rain
12:56 PM 41.0 °F 38.0 °F 37.9 °F 89% 29.96 in 10.0 mi NNE 4.6 mph - 0.00 in   Mostly Cloudy
1:56 PM 43.0 °F 40.3 °F 39.0 °F 86% 29.95 in 10.0 mi NNE 4.6 mph - N/A   Clear
2:56 PM 45.0 °F 42.6 °F 39.0 °F 80% 29.92 in 10.0 mi NNE 4.6 mph - N/A   Clear
3:56 PM 46.0 °F 41.0 °F 36.0 °F 68% 29.91 in 10.0 mi ENE 10.4 mph - N/A   Partly Cloudy
4:56 PM 46.0 °F 39.9 °F 34.0 °F 63% 29.87 in 10.0 mi East 13.8 mph - N/A   Partly Cloudy
5:56 PM 46.0 °F 39.3 °F 33.1 °F 61% 29.85 in 10.0 mi East 16.1 mph - N/A   Clear
7:56 PM 46.0 °F 40.2 °F 33.1 °F 61% 29.80 in 10.0 mi ENE 12.7 mph - N/A   Clear
8:56 PM 46.0 °F 39.9 °F 34.0 °F 63% 29.76 in 10.0 mi ENE 13.8 mph 18.4 mph N/A   Mostly Cloudy
9:56 PM 46.0 °F 39.6 °F 34.0 °F 63% 29.71 in 10.0 mi East 15.0 mph 24.2 mph N/A   Partly Cloudy
10:56 PM 46.9 °F - 34.0 °F 61% 29.67 in 10.0 mi ENE 17.3 mph 26.5 mph N/A   Partly Cloudy
11:56 PM 46.9 °F - 34.0 °F 61% 29.63 in 10.0 mi East 15.0 mph 24.2 mph N/A   Scattered Clouds